Location: ??
(35.5052°N, 139.7262°E)
Time: 03:51:43
(UTC+00:00)

Cosmos 1092 Rocket - Pass Details

Date: 20 June 2021
Orbit: 955 x 994 km, 82.9° (Epoch: 26 July)

Event Time Altitude Azimuth Distance (km) Brightness Sun altitude
Exits shadow 16:52:57 41° 253° (WSW) 1,349 4.4 -23.5°
Maximum altitude 16:54:00 45° 280° (W) 1,279 4.4 -23.4°
Drops below altitude 10° 16:59:52 10° 353° (N) 2,691 6.9 -22.7°
Sets 17:02:30 0° 360° (N) 3,643 7.9 -22.4°
